CW6294 Weather Reports


Display with metric or nautical units.
time (UTC)temp
F
wind
direction
speed
MPH
gust
MPH
rain 1hr
in
rain 24hr
in
rain mn
in
humidity
%
barometer
mb
20260506212229 70 205 5.0 19.0 0.00 0.23 0.23 90 1006.3
20260506210719 70 90 4.0 15.0 0.00 0.23 0.23 90 1006.0
20260506204532 70 198 4.0 12.0 0.00 0.23 0.23 91 1006.0
20260506203724 69 225 5.0 13.0 0.00 0.23 0.23 91 1006.0
20260506201533 69 204 6.0 15.0 0.00 0.23 0.23 91 1006.0
20260506200032 69 221 6.0 19.0 0.00 0.23 0.23 91 1006.1
20260506194527 68 193 6.0 16.0 0.00 0.23 0.23 92 1006.1
20260506193027 68 177 5.0 12.0 0.00 0.23 0.23 92 1006.0
20260506191526 67 165 6.0 18.0 0.00 0.23 0.23 93 1006.3
20260506190716 67 193 6.0 15.0 0.00 0.23 0.23 93 1006.6
20260506185235 67 176 5.0 19.0 0.00 0.23 0.23 92 1006.8
20260506183023 67 148 4.0 15.0 0.00 0.23 0.23 93 1006.6
20260506181522 67 194 6.0 14.0 0.00 0.23 0.23 93 1006.9
20260506180019 67 186 6.0 15.0 0.00 0.23 0.23 94 1007.0
20260506174518 65 181 5.0 12.0 0.00 0.23 0.23 97 1007.0
20260506173015 64 130 7.0 16.0 0.00 0.23 0.23 98 1007.1
20260506171514 64 200 6.0 14.0 0.00 0.23 0.23 99 1007.1
20260506170011 63 186 6.0 14.0 0.00 0.23 0.23 100 1007.5
20260506164509 63 211 6.0 14.0 0.00 0.23 0.23 100 1007.3
20260506163008 62 229 6.0 15.0 0.00 0.23 0.23 100 1007.4
20260506161503 62 219 5.0 14.0 0.01 0.23 0.23 100 1007.5
20260506160003 62 216 4.0 13.0 0.04 0.23 0.23 100 1007.4
20260506154503 62 208 5.0 14.0 0.06 0.23 0.23 100 1007.8
20260506153003 62 184 4.0 12.0 0.07 0.23 0.23 100 1007.8
20260506151503 61 219 4.0 12.0 0.07 0.22 0.22 100 1007.8
20260506150005 61 160 4.0 9.0 0.09 0.19 0.20 100 1008.2
20260506144503 61 199 3.0 15.0 0.12 0.17 0.17 100 1008.5
20260506143701 61 155 2.0 9.0 0.13 0.16 0.16 100 1008.4
20260506142159 61 173 3.0 10.0 0.13 0.14 0.15 99 1008.5
20260506135957 62 156 2.0 8.0 0.09 0.10 0.10 98 1008.4
20260506134457 62 182 2.0 10.0 0.04 0.05 0.05 98 1008.6
20260506132957 62 123 3.0 7.0 0.02 0.03 0.03 96 1008.8
20260506131455 63 183 3.0 8.0 0.01 0.01 0.01 96 1008.8
20260506130657 63 203 3.0 9.0 0.01 0.01 0.01 95 1008.5
20260506125138 63 185 2.0 7.0 0.01 0.01 0.01 95 1008.2
20260506122948 63 167 3.0 10.0 0.01 0.01 0.01 94 1008.1
20260506121446 64 186 4.0 12.0 0.00 0.00 0.00 91 1008.6
20260506115944 65 172 5.0 15.0 0.00 0.00 0.00 88 1008.5
20260506114444 65 206 5.0 11.0 0.00 0.00 0.00 86 1008.5
20260506113648 65 159 5.0 12.0 0.00 0.00 0.00 86 1008.3
20260506112139 65 227 5.0 12.0 0.00 0.00 0.00 85 1008.1
20260506105944 66 134 4.0 10.0 0.00 0.00 0.00 85 1007.9
20260506104445 65 199 4.0 13.0 0.00 0.00 0.00 84 1007.8
20260506102940 66 180 4.0 11.0 0.00 0.00 0.00 83 1007.8
20260506101433 66 155 4.0 14.0 0.00 0.00 0.00 83 1007.8
20260506095928 66 171 5.0 12.0 0.00 0.00 0.00 83 1007.7
20260506094428 66 186 4.0 12.0 0.00 0.00 0.00 83 1007.7
20260506092929 66 197 4.0 13.0 0.00 0.00 0.00 82 1007.8
20260506092126 66 194 4.0 14.0 0.00 0.00 0.00 82 1007.9
20260506085926 67 188 3.0 9.0 0.00 0.00 0.00 81 1008.0
20260506084426 67 157 4.0 14.0 0.00 0.00 0.00 80 1008.2
20260506083614 67 77 3.0 10.0 0.00 0.00 0.00 80 1008.0
20260506081424 68 216 3.0 11.0 0.00 0.00 0.00 79 1008.1
20260506072859 69 180 5.0 13.0 0.00 0.00 0.00 75 1007.8
20260506071357 69 190 7.0 18.0 0.00 0.00 0.00 74 1008.1
20260506070605 70 143 6.0 20.0 0.00 0.00 0.00 74 1008.2
20260506062046 70 221 4.0 19.0 0.00 0.00 0.00 71 1008.4
20260506060544 71 165 4.0 16.0 0.00 0.00 0.00 70 1008.4
20260506051346 72 180 6.0 18.0 0.00 0.00 0.00 67 1008.7
20260506044340 72 170 4.0 13.0 0.00 0.00 0.00 66 1008.9
20260506042839 73 207 5.0 13.0 0.00 0.00 0.00 65 1008.9
20260506041334 73 187 4.0 11.0 0.00 0.00 0.00 65 1008.9
20260506035833 73 236 4.0 11.0 0.00 0.00 0.00 64 1009.0
20260506034330 73 188 4.0 11.0 0.00 0.00 0.00 64 1009.0
20260506032828 73 206 5.0 12.0 0.00 0.00 0.00 63 1009.0
20260506032029 73 155 4.0 12.0 0.00 0.00 0.00 62 1009.0
20260506025821 74 179 5.0 14.0 0.00 0.00 0.00 61 1008.8
20260506024322 74 183 5.0 19.0 0.00 0.00 0.00 60 1008.9
20260506023525 74 153 3.0 10.0 0.00 0.00 0.00 58 1009.0
20260506022012 74 160 3.0 10.0 0.00 0.00 0.00 56 1009.1
20260506015814 75 179 3.0 11.0 0.00 0.00 0.00 55 1009.1
20260506014312 76 179 5.0 12.0 0.00 0.00 0.00 54 1008.9
20260506012811 76 169 5.0 12.0 0.00 0.00 0.00 53 1008.8
20260506011310 76 182 5.0 13.0 0.00 0.00 0.00 52 1008.6
20260506005806 76 199 5.0 14.0 0.00 0.00 0.00 51 1008.4
20260506004304 77 173 5.0 15.0 0.00 0.00 0.00 50 1008.2
20260506002803 78 190 4.0 13.0 0.00 0.00 0.00 48 1008.3
20260506001258 78 260 4.0 12.0 0.00 0.00 0.00 47 1008.1
20260505235758 79 182 4.0 20.0 0.00 0.00 0.00 45 1007.9
20260505234258 79 202 6.0 14.0 0.00 0.00 0.00 46 1007.9
20260505232758 80 143 5.0 14.0 0.00 0.00 0.00 45 1007.8
20260505231301 81 203 5.0 14.0 0.00 0.00 0.00 43 1007.9
20260505225758 82 125 6.0 15.0 0.00 0.00 0.00 41 1007.8
20260505224257 82 214 6.0 15.0 0.00 0.00 0.00 40 1007.8
20260505222752 82 232 7.0 19.0 0.00 0.00 0.00 40 1007.8
20260505221249 82 219 9.0 23.0 0.00 0.00 0.00 39 1007.8
20260505220440 83 203 9.0 23.0 0.00 0.00 0.00 38 1007.8
20260505214939 83 226 8.0 16.0 0.00 0.00 0.00 39 1007.8
20260505212746 83 214 6.0 24.0 0.00 0.00 0.00 41 1007.6